EW6655 Weather Reports


time (UTC)temp
C
wind
direction
speed
KPH
gust
KPH
rain 1hr
cm
rain 24hr
cm
rain mn
cm
humidity
%
barometer
mb
20260505040058 10 188 0.0 0.0 0.03 0.41 0.08 95 1008.9
20260505034549 10 188 0.0 0.0 0.03 0.41 0.08 95 1009.0
20260505033049 10 188 0.0 0.0 0.00 0.38 0.05 95 1009.1
20260505031549 10 188 0.0 0.0 0.03 0.38 0.05 95 1009.3
20260505030045 10 188 0.0 0.0 0.03 0.38 0.05 95 1009.4
20260505024543 10 188 0.0 0.0 0.05 0.38 0.05 95 1009.6
20260505023045 10 188 0.0 0.0 0.05 0.38 0.05 94 1009.7
20260505021542 10 188 0.0 3.2 0.05 0.36 0.05 94 1009.9
20260505020040 10 188 0.0 3.2 0.05 0.36 0.05 94 1009.9
20260505014557 10 188 0.0 0.0 0.03 0.33 0.03 94 1009.9
20260505013042 10 188 0.0 4.8 0.03 0.33 0.03 94 1009.8
20260505011538 10 188 0.0 3.2 0.00 0.33 0.00 94 1009.9
20260505010037 10 188 0.0 1.6 0.00 0.33 0.00 94 1009.9
20260505004540 10 188 0.0 0.0 0.00 0.33 0.00 94 1010.0
20260505003034 10 188 0.0 1.6 0.00 0.33 0.00 94 1010.2
20260505001533 10 188 0.0 3.2 0.00 0.33 0.00 93 1010.3
20260505000039 10 188 0.0 1.6 0.00 0.33 0.00 93 1010.5
20260504234530 10 188 0.0 3.2 0.00 0.33 0.00 93 1010.6
20260504233031 10 188 0.0 6.4 0.00 0.33 0.00 93 1010.8
20260504231528 10 206 1.6 9.7 0.00 0.33 0.00 93 1010.8
20260504230026 10 218 1.6 9.7 0.00 0.33 0.00 93 1010.9
20260504224524 10 202 1.6 6.4 0.00 0.33 0.00 93 1011.0
20260504223023 10 225 1.6 8.0 0.00 0.33 0.00 93 1011.1
20260504221523 10 216 3.2 9.7 0.00 0.33 0.00 93 1011.2
20260504220019 10 173 1.6 9.7 0.00 0.33 0.00 94 1011.4
20260504214520 10 194 1.6 6.4 0.00 0.33 0.33 94 1011.5
20260504213041 10 212 0.0 6.4 0.00 0.33 0.33 94 1011.6
20260504211518 10 198 1.6 6.4 0.00 0.33 0.33 94 1011.7
20260504210018 10 261 0.0 6.4 0.00 0.33 0.33 93 1011.8
20260504204516 10 195 1.6 8.0 0.00 0.33 0.33 93 1011.9
20260504203016 10 184 1.6 4.8 0.00 0.33 0.33 93 1012.0
20260504201522 10 173 0.0 3.2 0.00 0.33 0.33 93 1012.0
20260504200017 10 170 0.0 1.6 0.00 0.33 0.33 93 1012.1
20260504194517 10 170 0.0 3.2 0.00 0.33 0.33 93 1012.1
20260504193014 10 170 0.0 3.2 0.00 0.33 0.33 93 1012.0
20260504191515 10 170 0.0 1.6 0.00 0.33 0.33 93 1011.9
20260504190013 11 186 0.0 1.6 0.00 0.33 0.33 92 1011.9
20260504184515 11 186 0.0 4.8 0.00 0.33 0.33 92 1011.9
20260504183019 11 186 0.0 6.4 0.00 0.33 0.33 92 1011.9
20260504181512 11 185 1.6 8.0 0.03 0.33 0.33 92 1011.9
20260504180011 11 207 0.0 6.4 0.03 0.33 0.33 92 1011.9
20260504174511 11 207 1.6 6.4 0.03 0.33 0.33 92 1012.0
20260504173022 11 207 0.0 4.8 0.03 0.33 0.33 92 1012.1
20260504171517 11 207 0.0 4.8 0.03 0.30 0.30 92 1012.2
20260504110117 15 206 6.4 12.9 0.00 0.03 0.00 78 1012.9
20260504090113 15 213 4.8 9.7 0.00 0.03 0.00 73 1013.0
20260504081540 14 261 3.2 11.3 0.00 0.03 0.00 79 1012.8
20260504050014 9 267 1.6 6.4 0.00 0.03 0.00 91 1012.0
20260504044530 8 194 1.6 8.0 0.00 0.03 0.00 92 1011.7
20260504043014 8 213 1.6 9.7 0.00 0.03 0.00 91 1011.6
20260504041509 8 229 1.6 8.0 0.00 0.03 0.00 91 1011.4